Theta_e
295 295 296 297 298 299 300 300 299 300 302 308 311 313 310 308 306 304 302 302 299 297 296 295 294 293 292 291 291 290 290 290
294 294 295 295 295 296 296 296 296 296 298 301 301 301 301 300 299 296 295 294 293 292 291 290 290 289 289 288 288 287 287 287
293 292 292 294 294 294 293 294 293 292 294 295 296 297 296 294 293 292 291 291 291 290 289 288 287 287 287 286 286 285 285 285
291 291 292 292 292 291 292 291 290 291 291 290 291 292 292 291 290 290 289 289 287 287 287 286 286 286 285 285 285 284 284 284
291 291 291 291 290 290 290 290 289 289 289 289 288 289 289 288 288 287 287 286 286 285 284 285 284 285 284 284 284 283 283 283
291 290 289 289 289 289 288 288 288 288 287 286 286 287 287 286 286 285 285 285 284 284 283 284 285 285 284 284 284 283 282 282
291 290 289 290 289 289 288 288 288 287 286 285 286 285 285 284 284 284 284 283 283 283 283 284 285 290 289 285 283 282 282 281
292 291 291 290 290 289 288 287 286 286 285 285 285 284 284 284 283 283 283 283 282 282 283 283 285 289 289 286 283 282 281 281
293 292 292 291 289 289 287 286 286 285 284 284 284 283 283 283 282 282 282 281 281 281 282 282 285 289 287 285 282 282 282 282
296 294 292 290 289 287 286 285 285 284 284 283 283 282 282 282 281 280 279 279 279 280 280 280 280 287 287 284 282 282 282 282
294 292 290 289 288 287 285 284 284 284 284 283 282 282 282 281 279 278 279 279 280 280 278 277 277 286 287 284 281 277 280 281
291 290 289 287 287 286 285 285 285 283 282 281 281 281 280 279 277 278 278 278 277 277 275 275 277 278 285 286 281 279 277 277
287 287 287 287 287 286 285 285 283 282 281 280 280 280 279 278 277 278 278 277 276 276 275 275 274 277 284 284 284 283 274 275
285 284 284 286 288 286 285 283 282 281 280 278 278 278 278 278 277 276 276 276 275 275 274 273 275 273 282 283 283 283 278 279
282 282 282 285 285 286 283 283 283 281 279 278 278 277 277 277 277 276 275 275 274 273 273 270 270 272 273 274 273 277 278 280
281 281 280 280 282 282 282 283 282 280 278 277 278 277 275 275 275 275 274 275 273 271 271 270 267 270 276 275 269 266 273 269
277 279 278 279 278 280 282 284 282 279 277 277 276 275 274 273 271 275 276 278 279 278 273 270 276 280 281 280 281 280 278 262
277 278 278 278 277 279 281 282 281 280 277 276 275 273 272 272 272 270 271 277 279 280 281 280 277 280 279 280 278 275 270 257
277 276 277 278 279 277 279 280 280 279 277 276 275 274 272 271 271 270 269 267 265 275 275 277 278 277 278 278 269 257 258 253
275 275 276 277 276 272 273 276 274 274 275 275 273 272 271 268 265 265 261 262 258 257 266 264 275 276 276 273 255 254 252 251
Wind_Speed
6 6 5 5 4 5 5 5 4 5 4 6 6 6 9 9 10 9 7 9 9 8 8 8 7 8 8 6 5 7 4 4
4 5 6 5 5 5 6 6 5 5 4 6 6 8 9 9 9 8 7 9 9 8 8 8 8 6 8 7 6 8 6 5
6 5 5 6 6 5 5 6 5 5 6 7 8 9 10 10 8 7 10 8 10 9 9 8 7 6 7 8 6 7 6 5
5 7 6 5 5 6 6 6 6 5 7 6 7 8 10 10 8 8 11 10 9 9 8 7 7 7 6 7 6 6 6 5
9 7 6 5 5 6 6 6 7 6 7 8 7 7 8 9 9 9 9 11 9 7 7 7 7 6 6 6 6 6 5 5
8 7 7 7 6 5 5 7 7 7 7 6 7 8 8 8 8 8 9 8 8 9 7 6 6 4 6 6 5 5 5 5
11 10 11 11 9 8 7 7 7 8 8 8 9 8 8 8 8 8 8 7 7 6 7 7 4 10 9 7 5 5 5 4
13 13 12 13 12 11 10 8 8 8 8 9 9 9 8 8 9 8 7 6 7 6 7 6 6 10 9 8 4 5 4 4
14 14 12 10 9 9 9 9 9 8 9 8 9 9 8 8 8 6 5 6 5 6 6 6 5 11 10 9 5 5 5 4
13 13 13 14 12 12 10 9 9 10 10 8 9 9 8 8 7 5 5 3 2 4 6 7 4 11 10 7 4 4 4 3
12 10 13 13 14 15 13 12 11 10 10 9 8 9 9 7 6 3 3 4 5 6 4 5 5 6 6 6 2 3 1 2
14 16 14 14 15 14 13 15 11 10 9 8 7 8 7 7 3 5 6 6 4 5 3 4 4 3 6 6 3 3 1 1
10 10 11 15 16 16 15 11 12 12 11 10 8 6 6 8 5 6 6 6 5 4 3 1 2 4 6 5 5 4 4 4
7 8 8 12 14 15 12 14 13 12 11 10 8 7 6 8 7 5 5 4 4 4 3 3 1 1 4 4 5 5 3 3
6 6 7 9 8 9 14 14 15 13 11 9 10 8 6 4 5 5 6 5 5 5 5 3 1 2 2 2 2 5 4 7
5 5 5 5 6 10 13 15 14 12 11 10 8 9 8 4 5 4 2 5 6 5 5 5 3 4 7 6 3 3 4 1
4 6 5 6 6 7 9 12 13 12 9 9 8 6 6 6 4 4 6 11 10 9 7 3 6 10 8 6 6 2 4 4
3 5 6 7 8 8 10 11 12 12 11 8 8 8 8 7 7 7 1 5 9 11 14 12 9 10 7 8 3 2 4 2
5 5 4 5 7 6 9 10 11 9 12 9 9 8 7 8 7 5 7 6 3 10 9 11 10 9 9 5 5 3 4 2
2 3 5 6 6 5 4 7 8 7 7 7 6 6 6 5 4 4 4 4 3 1 5 3 11 9 7 4 3 3 3 2
Wind_Direction
177 180 164 164 164 165 163 173 163 156 165 176 163 142 129 129 125 123 122 115 104 100 100 92 84 89 96 87 78 87 70 72
174 171 160 146 165 161 146 143 138 130 128 125 119 116 112 116 114 117 119 111 112 112 101 98 96 88 91 92 90 84 78 60
169 169 166 165 164 161 135 127 126 116 113 110 117 118 115 112 113 122 115 106 112 108 102 101 98 96 92 89 82 90 83 71
162 192 189 176 163 149 140 129 126 126 114 103 108 119 119 119 117 122 118 110 101 106 109 106 96 92 90 104 102 90 86 78
191 188 169 173 166 159 151 139 138 132 126 124 124 118 117 117 122 120 117 113 107 101 104 105 111 109 110 103 94 86 78 77
199 182 176 175 175 164 149 147 139 133 126 121 108 109 112 108 107 104 103 108 112 114 107 110 107 113 103 96 96 101 98 82
193 186 190 187 178 165 166 152 141 140 134 129 124 124 120 116 117 110 110 112 109 116 117 109 98 105 110 115 116 105 99 96
195 192 191 189 178 175 165 142 148 142 141 135 131 129 128 126 121 122 124 121 123 119 117 117 109 120 120 117 111 106 95 93
196 193 187 174 164 150 150 155 152 147 143 137 136 134 134 128 126 123 131 130 134 122 120 116 126 134 124 121 118 115 113 107
192 184 171 167 158 146 150 155 155 159 154 148 146 143 142 139 140 133 117 113 111 130 135 136 136 139 137 131 131 117 120 132
168 161 164 168 157 158 165 163 169 163 158 149 146 145 149 143 138 115 118 131 134 132 133 135 143 143 140 145 134 119 188 223
163 174 173 157 158 167 167 180 163 142 137 136 142 143 139 128 114 137 131 127 125 124 141 146 154 172 158 149 133 158 135 248
158 162 157 163 168 170 177 154 144 145 144 146 143 136 139 137 130 127 136 137 139 146 136 153 178 202 170 160 177 215 162 235
143 137 154 169 178 170 161 147 145 144 146 142 134 138 145 146 144 141 150 148 158 165 169 188 186 235 225 208 231 245 234 228
117 147 162 175 173 162 151 149 150 150 148 147 152 146 146 143 156 158 167 165 168 182 184 188 226 221 232 242 269 277 287 284
144 146 157 142 133 145 150 151 152 149 152 158 161 167 158 152 169 179 180 177 178 191 173 169 210 226 212 211 215 223 238 353
126 128 131 126 124 135 156 163 153 154 161 166 158 160 159 157 143 202 193 198 197 183 171 212 216 214 221 234 248 325 331 50
166 139 144 139 142 149 161 161 168 168 165 157 158 169 168 169 173 172 196 213 214 213 203 202 207 216 222 234 153 45 64 111
138 134 137 153 179 169 171 172 173 161 164 167 175 175 168 176 181 167 176 187 211 215 200 213 207 216 227 198 90 26 24 123
82 124 144 168 189 162 157 167 158 153 168 167 158 164 162 154 153 173 172 189 176 194 233 237 206 212 206 164 136 175 217 217